DW3219 Weather Reports


Display with metric or nautical units.
time (UTC)temp
F
wind
direction
speed
MPH
gust
MPH
rain 1hr
in
rain 24hr
in
rain mn
in
humidity
%
barometer
mb
20260904214525 93 263 0.0 0.0 0.00 0.00 0.00 11 1001.3
20260904213123 92 167 0.0 5.0 0.00 0.00 0.00 10 1001.3
20260904211520 92 213 0.0 4.0 0.00 0.00 0.00 12 1001.3
20260904210016 91 108 0.0 1.0 0.00 0.00 0.00 13 1001.6
20260904204505 91 154 0.0 4.0 0.00 0.00 0.00 12 1001.7
20260904203005 91 116 0.0 2.0 0.00 0.00 0.00 12 1001.9
20260904201502 90 209 0.0 7.0 0.00 0.00 0.00 12 1002.0
20260904200004 89 121 0.0 9.0 0.00 0.00 0.00 12 1002.2
20260904194602 89 184 0.0 3.0 0.00 0.00 0.00 13 1002.3
20260904193059 89 78 0.0 1.0 0.00 0.00 0.00 14 1002.5
20260904191557 88 147 0.0 6.0 0.00 0.00 0.00 14 1002.7
20260904190054 87 170 0.0 2.0 0.00 0.00 0.00 14 1002.8
20260904184601 87 162 0.0 4.0 0.00 0.00 0.00 15 1003.1
20260904183040 86 154 0.0 3.0 0.00 0.00 0.00 15 1003.3
20260904181524 86 144 0.0 2.0 0.00 0.00 0.00 17 1003.5
20260904180021 85 181 0.0 3.0 0.00 0.00 0.00 16 1003.6
20260904174509 84 183 0.0 4.0 0.00 0.00 0.00 17 1003.8
20260904173006 82 126 0.0 4.0 0.00 0.00 0.00 18 1003.9
20260904171503 81 154 0.0 6.0 0.00 0.00 0.00 18 1003.9
20260904170003 77 288 0.0 2.0 0.00 0.00 0.00 26 1004.0
20260904164503 76 292 0.0 3.0 0.00 0.00 0.00 28 1004.2
20260904163002 74 265 0.0 2.0 0.00 0.00 0.00 27 1004.1
20260904161501 72 263 0.0 2.0 0.00 0.00 0.00 29 1004.1
20260904160001 71 285 0.0 4.0 0.00 0.00 0.00 31 1004.0
20260904154545 69 268 0.0 1.0 0.00 0.00 0.00 33 1004.0
20260904153042 67 258 0.0 0.0 0.00 0.00 0.00 35 1004.0
20260904151529 65 254 0.0 0.0 0.00 0.00 0.00 39 1004.0
20260904150034 63 254 0.0 0.0 0.00 0.00 0.00 44 1004.0
20260904144526 59 254 0.0 0.0 0.00 0.00 0.00 56 1004.2
20260904143025 57 255 0.0 0.0 0.00 0.00 0.00 61 1004.3
20260904141524 55 260 0.0 0.0 0.00 0.00 0.00 61 1004.2
20260904140023 52 266 0.0 2.0 0.00 0.00 0.00 64 1004.1
20260904134521 50 255 0.0 0.0 0.00 0.00 0.00 69 1004.0
20260904133020 49 255 0.0 0.0 0.00 0.00 0.00 72 1003.9
20260904131501 48 257 0.0 0.0 0.00 0.00 0.00 73 1003.6
20260904124544 49 243 0.0 0.0 0.00 0.00 0.00 71 1003.2
20260904123042 50 270 0.0 0.0 0.00 0.00 0.00 70 1003.0
20260904121540 50 271 0.0 0.0 0.00 0.00 0.00 69 1002.9
20260904120038 51 277 0.0 0.0 0.00 0.00 0.00 68 1002.8
20260904114537 51 277 0.0 0.0 0.00 0.00 0.00 68 1002.7
20260904113036 51 277 0.0 0.0 0.00 0.00 0.00 66 1002.6
20260904111534 51 277 0.0 0.0 0.00 0.00 0.00 65 1002.6
20260904110035 51 234 0.0 0.0 0.00 0.00 0.00 64 1002.6
20260904104521 52 233 0.0 0.0 0.00 0.00 0.00 63 1002.5
20260904103015 52 233 0.0 0.0 0.00 0.00 0.00 63 1002.3
20260904101515 52 233 0.0 0.0 0.00 0.00 0.00 63 1002.0
20260904100013 53 233 0.0 0.0 0.00 0.00 0.00 61 1002.1
20260904094511 54 257 0.0 0.0 0.00 0.00 0.00 56 1001.8
20260904093008 55 237 0.0 0.0 0.00 0.00 0.00 53 1001.8
20260904091504 56 237 0.0 0.0 0.00 0.00 0.00 53 1001.8
20260904090001 56 245 0.0 0.0 0.00 0.00 0.00 52 1001.6
20260904084548 56 243 0.0 0.0 0.00 0.00 0.00 51 1001.8
20260904083047 57 243 0.0 0.0 0.00 0.00 0.00 50 1001.7
20260904081545 57 243 0.0 0.0 0.00 0.00 0.00 55 1001.8
20260904080043 58 246 0.0 0.0 0.00 0.00 0.00 54 1001.9
20260904074539 59 246 0.0 0.0 0.00 0.00 0.00 53 1002.0
20260904073051 59 246 0.0 0.0 0.00 0.00 0.00 53 1001.9
20260904071536 60 248 0.0 0.0 0.00 0.00 0.00 52 1002.0
20260904070033 61 245 0.0 0.0 0.00 0.00 0.00 50 1001.9
20260904064518 62 250 0.0 0.0 0.00 0.00 0.00 49 1001.8
20260904063111 62 258 0.0 5.0 0.00 0.00 0.00 46 1001.7
20260904061603 63 267 0.0 1.0 0.00 0.00 0.00 46 1001.6
20260904060056 63 261 0.0 3.0 0.00 0.00 0.00 45 1001.6
20260904054558 64 266 0.0 1.0 0.00 0.00 0.00 44 1001.5
20260904053122 65 257 1.0 10.0 0.00 0.00 0.00 41 1001.6
20260904051551 66 249 0.0 0.0 0.00 0.00 0.00 39 1001.7
20260904050045 68 259 0.0 4.0 0.00 0.00 0.00 38 1001.7
20260904044550 72 196 0.0 0.0 0.00 0.00 0.00 29 1001.6
20260904043046 74 182 0.0 2.0 0.00 0.00 0.00 25 1001.5
20260904041525 71 161 0.0 0.0 0.00 0.00 0.00 27 1001.7
20260904040025 71 221 0.0 2.0 0.00 0.00 0.00 30 1001.7
20260904034516 73 143 0.0 3.0 0.00 0.00 0.00 25 1001.6
20260904033017 68 188 0.0 0.0 0.00 0.00 0.00 36 1001.6
20260904031509 69 126 0.0 0.0 0.00 0.00 0.00 39 1001.5
20260904030005 70 107 0.0 0.0 0.00 0.00 0.00 39 1001.4
20260904024502 71 106 0.0 0.0 0.00 0.00 0.00 38 1001.2
20260904023057 73 87 0.0 0.0 0.00 0.00 0.00 35 1001.0
20260904021554 75 87 0.0 0.0 0.00 0.00 0.00 32 1000.9
20260904020100 76 87 0.0 0.0 0.00 0.00 0.00 29 1000.7
20260904014549 78 87 0.0 0.0 0.00 0.00 0.00 27 1000.8
20260904013033 80 87 0.0 0.0 0.00 0.00 0.00 23 1000.8
20260904011525 82 87 0.0 0.0 0.00 0.00 0.00 21 1000.8
20260904010023 83 87 0.0 0.0 0.00 0.00 0.00 20 1000.8
20260904004520 83 88 0.0 0.0 0.00 0.00 0.00 20 1000.8
20260904003024 84 85 0.0 0.0 0.00 0.00 0.00 19 1000.9
20260904001519 84 76 0.0 0.0 0.00 0.00 0.00 21 1001.1
20260904000018 86 80 0.0 1.0 0.00 0.00 0.00 16 1001.1
20260903234504 87 208 0.0 2.0 0.00 0.00 0.00 13 1001.1
20260903233001 86 163 0.0 1.0 0.00 0.00 0.00 14 1001.1
20260903231601 85 155 0.0 3.0 0.00 0.00 0.00 14 1001.2
20260903231503 86 156 0.0 2.0 0.00 0.00 0.00 14 1001.2
20260903230108 86 200 0.0 3.0 0.00 0.00 0.00 13 1001.2
20260903224559 86 153 0.0 4.0 0.00 0.00 0.00 14 1001.2
20260903223057 85 126 0.0 2.0 0.00 0.00 0.00 14 1001.3
20260903221557 85 72 0.0 7.0 0.00 0.00 0.00 14 1001.3
20260903220104 85 187 0.0 8.0 0.00 0.00 0.00 14 1001.4